Probability
35 32 29 23 19 16 16 16 10 6 6 10 6 3 3 3 6 3 0 0 0 0 3 0 3 3 0 0 0 0 0 3 3 3 3 3 3 3 3 3 3 0 0
26 23 23 16 13 13 13 13 10 6 10 10 13 6 6 10 6 6 0 0 0 0 3 0 3 3 0 0 0 0 0 0 0 0 3 3 3 3 3 3 0 0 0
16 16 16 13 16 13 10 10 6 6 10 6 10 10 6 6 3 3 0 0 0 0 3 3 3 0 0 0 0 0 0 0 0 0 0 0 0 0 0 0 0 0 0
16 13 13 10 10 10 13 10 10 6 6 3 6 10 6 6 3 0 0 0 0 0 0 0 0 0 0 0 0 0 0 0 0 0 0 0 0 0 0 0 0 0 0
16 16 16 6 6 10 6 6 6 6 10 6 6 6 13 10 6 3 3 0 3 0 0 0 0 0 0 0 0 0 0 0 0 0 0 0 0 0 0 0 0 0 0
16 13 10 10 10 10 6 6 6 6 6 10 10 10 10 6 3 3 3 3 3 0 0 0 0 0 0 0 0 0 0 0 0 0 0 0 0 0 0 0 0 0 0
19 16 10 10 10 6 13 6 6 6 6 6 10 10 6 6 3 0 0 3 0 0 0 0 0 0 0 0 0 0 0 0 0 0 0 0 0 0 0 0 0 0 0
16 19 16 13 10 6 6 3 3 0 3 6 6 6 10 6 3 0 0 0 0 0 0 0 0 0 0 0 0 0 0 0 0 0 0 0 0 0 0 0 0 0 0
16 16 10 10 10 3 3 0 0 0 0 0 6 6 6 6 0 0 0 0 0 3 3 3 0 0 0 0 0 0 0 0 0 0 0 0 0 0 0 0 0 0 0
13 13 13 3 3 3 3 3 0 0 0 3 6 6 6 6 0 0 0 0 3 3 3 3 3 0 0 0 0 0 0 0 0 0 0 0 0 0 0 0 0 0 0
16 10 6 6 6 6 6 6 6 3 3 3 3 3 3 0 0 0 0 0 0 0 3 3 0 0 0 0 0 0 0 0 0 0 0 0 0 0 0 0 0 0 0
6 6 3 3 3 6 10 6 0 0 3 3 3 0 0 0 0 0 0 0 0 0 0 0 0 0 0 0 0 0 0 0 0 0 0 0 0 0 0 0 0 0 0
6 3 3 3 3 6 6 6 3 0 0 0 0 0 0 0 0 0 0 0 0 0 0 0 0 0 0 0 0 0 0 0 0 0 0 0 0 0 0 0 0 0 0
6 3 3 3 6 6 6 3 3 3 0 0 0 0 0 0 0 0 0 0 0 0 0 0 0 0 0 0 0 0 0 0 0 0 0 0 0 0 0 0 0 0 0
3 3 3 6 6 6 6 3 0 0 0 0 0 0 0 0 0 0 0 0 0 0 0 0 0 0 0 0 0 0 0 0 0 0 0 0 0 0 0 0 0 0 0
6 6 6 6 6 3 0 0 0 0 0 0 0 0 0 0 0 0 0 0 0 0 0 0 0 0 0 0 0 0 0 0 0 0 0 0 0 0 0 0 0 0 0
3 3 3 3 3 0 0 0 0 0 0 0 0 0 0 0 0 0 0 0 0 0 0 0 0 0 0 0 0 0 0 0 0 0 0 0 0 0 0 0 0 0 0
6 3 3 3 3 0 0 0 0 0 0 0 0 0 0 0 0 0 0 0 0 0 0 0 0 0 0 0 0 0 0 0 0 0 0 0 0 0 0 0 0 0 0
6 3 3 3 0 0 0 0 0 0 0 0 0 0 0 0 0 0 0 0 0 0 0 0 0 0 0 0 0 0 0 0 0 0 0 0 0 0 0 0 0 0 0
3 0 0 0 0 0 0 0 0 0 0 0 0 0 0 0 0 0 0 0 0 0 0 0 0 0 0 0 0 0 0 0 0 0 0 0 0 0 0 0 0 0 0
0 0 0 0 0 0 0 0 0 0 0 0 0 0 0 0 0 0 0 0 0 0 0 0 0 0 0 0 0 0 0 0 0 0 0 0 0 0 0 0 0 0 0
0 0 0 0 0 0 0 0 0 0 0 0 0 0 0 0 0 0 0 0 0 0 0 0 0 0 0 0 0 0 0 0 0 0 0 0 0 0 0 0 0 0 0
0 0 0 0 0 0 0 0 0 0 0 0 0 0 0 0 0 0 0 0 0 0 0 0 0 0 0 0 0 0 0 0 0 0 0 0 0 0 0 0 0 0 0
0 0 0 0 0 0 0 0 0 0 0 0 0 0 0 0 0 0 0 0 0 0 0 0 0 0 0 0 0 0 0 0 0 0 0 0 0 0 0 0 0 0 0
0 0 0 0 0 0 0 0 0 0 0 0 0 0 0 0 0 0 0 0 0 0 0 0 0 0 0 0 0 0 0 0 0 0 0 0 0 0 0 0 0 0 0
0 0 0 0 0 0 0 0 0 0 0 0 0 0 0 0 0 0 0 0 0 0 0 0 0 0 0 0 0 0 0 0 0 0 0 0 0 0 0 0 0 0 0
Height
5889 5886 5884 5881 5879 5877 5876 5874 5873 5872 5870 5869 5868 5867 5865 5864 5863 5862 5861 5860 5859 5858 5858 5857 5856 5856 5855 5855 5854 5853 5852 5852 5851 5850 5848 5847 5846 5845 5843 5842 5840 5839 5837
5888 5885 5883 5881 5878 5876 5874 5872 5871 5870 5868 5867 5865 5864 5862 5861 5859 5858 5857 5856 5855 5854 5853 5852 5851 5851 5850 5849 5848 5847 5847 5846 5845 5844 5842 5841 5839 5838 5837 5835 5833 5832 5830
5887 5884 5882 5880 5877 5875 5873 5871 5869 5867 5866 5864 5862 5861 5859 5858 5856 5855 5853 5851 5850 5849 5848 5847 5846 5845 5844 5843 5842 5842 5841 5840 5839 5838 5836 5835 5833 5831 5830 5828 5826 5824 5822
5885 5883 5880 5878 5876 5873 5871 5869 5867 5865 5863 5861 5859 5857 5855 5854 5852 5850 5849 5847 5846 5845 5843 5842 5841 5839 5838 5837 5836 5835 5834 5833 5832 5831 5829 5828 5826 5824 5822 5820 5818 5816 5814
5883 5880 5878 5876 5873 5871 5868 5866 5864 5862 5860 5858 5856 5853 5852 5850 5848 5846 5845 5843 5841 5839 5838 5837 5835 5834 5832 5831 5830 5829 5827 5826 5825 5823 5822 5820 5818 5816 5814 5812 5810 5808 5806
5880 5878 5875 5873 5870 5867 5865 5862 5860 5858 5856 5854 5852 5850 5847 5845 5844 5842 5840 5838 5836 5834 5833 5831 5830 5828 5826 5824 5823 5822 5820 5819 5817 5816 5814 5812 5810 5808 5806 5804 5802 5800 5798
5877 5874 5871 5869 5866 5864 5861 5858 5856 5854 5852 5850 5848 5845 5843 5841 5839 5837 5835 5833 5831 5829 5828 5826 5824 5822 5820 5818 5817 5815 5814 5812 5810 5808 5806 5804 5802 5800 5798 5796 5793 5791 5789
5873 5870 5868 5865 5862 5859 5856 5854 5851 5849 5847 5845 5843 5841 5839 5837 5834 5832 5830 5828 5826 5824 5822 5820 5818 5816 5814 5812 5810 5808 5806 5804 5802 5800 5798 5796 5794 5791 5789 5787 5784 5782 5779
5868 5866 5863 5860 5857 5855 5852 5849 5846 5844 5842 5840 5838 5836 5834 5832 5829 5827 5825 5823 5820 5818 5816 5814 5812 5810 5808 5805 5803 5801 5799 5797 5795 5792 5789 5787 5785 5782 5780 5777 5775 5772 5770
5864 5861 5859 5856 5853 5850 5847 5843 5841 5838 5836 5834 5832 5830 5828 5826 5824 5821 5819 5817 5814 5812 5810 5808 5806 5803 5801 5798 5796 5794 5791 5789 5786 5784 5781 5779 5776 5773 5770 5768 5765 5763 5760
5859 5856 5854 5851 5847 5844 5841 5838 5836 5833 5831 5829 5827 5824 5822 5820 5817 5815 5813 5810 5808 5805 5803 5801 5799 5796 5794 5791 5788 5786 5784 5781 5778 5776 5773 5770 5767 5765 5762 5759 5756 5753 5750
5854 5851 5848 5845 5841 5838 5835 5832 5830 5827 5825 5823 5821 5818 5816 5813 5811 5808 5806 5804 5801 5799 5796 5794 5791 5789 5786 5783 5781 5778 5776 5773 5770 5767 5764 5761 5758 5755 5752 5749 5746 5743 5740
5847 5845 5842 5839 5836 5832 5829 5827 5824 5821 5819 5817 5815 5812 5810 5807 5804 5802 5799 5797 5794 5792 5789 5786 5784 5781 5778 5776 5773 5770 5767 5765 5761 5758 5755 5752 5749 5746 5743 5739 5736 5733 5730
5841 5838 5836 5833 5830 5826 5823 5821 5818 5815 5813 5811 5808 5806 5803 5801 5798 5795 5792 5790 5787 5784 5782 5779 5776 5773 5771 5768 5765 5762 5759 5756 5752 5749 5746 5743 5739 5736 5733 5730 5727 5723 5720
5834 5832 5829 5827 5824 5820 5817 5815 5812 5809 5807 5804 5801 5799 5796 5794 5791 5788 5785 5783 5780 5777 5774 5772 5769 5766 5763 5760 5756 5753 5750 5747 5743 5740 5737 5733 5730 5727 5724 5720 5717 5714 5710
5827 5824 5822 5820 5817 5814 5811 5808 5805 5803 5800 5797 5795 5792 5789 5787 5784 5781 5778 5775 5773 5770 5767 5764 5761 5758 5755 5751 5748 5745 5741 5738 5734 5731 5727 5724 5721 5717 5714 5711 5707 5704 5700
5819 5817 5814 5812 5809 5807 5804 5801 5799 5796 5793 5790 5787 5785 5782 5779 5776 5773 5771 5768 5765 5762 5759 5756 5753 5750 5746 5743 5739 5736 5733 5729 5725 5722 5718 5714 5711 5708 5704 5701 5698 5694 5691
5812 5809 5807 5804 5802 5799 5797 5794 5791 5789 5786 5783 5780 5777 5774 5771 5768 5765 5763 5760 5757 5754 5751 5748 5744 5741 5738 5734 5731 5727 5723 5720 5716 5712 5709 5705 5702 5698 5695 5691 5688 5684 5681
5804 5802 5799 5797 5794 5792 5789 5787 5784 5781 5778 5775 5772 5769 5766 5763 5760 5758 5755 5752 5749 5746 5742 5739 5736 5732 5729 5725 5722 5718 5714 5711 5707 5703 5699 5696 5692 5689 5685 5682 5678 5675 5672
5796 5794 5792 5790 5787 5785 5782 5779 5776 5774 5771 5768 5765 5762 5759 5756 5753 5750 5747 5744 5741 5737 5734 5731 5727 5724 5720 5716 5713 5709 5705 5702 5698 5694 5690 5687 5683 5680 5676 5673 5669 5665 5662
5788 5786 5784 5782 5779 5777 5774 5771 5769 5766 5763 5760 5757 5754 5752 5749 5746 5743 5740 5736 5733 5730 5726 5723 5719 5715 5711 5708 5704 5700 5696 5693 5689 5685 5681 5678 5674 5670 5667 5663 5659 5656 5652
5780 5778 5776 5774 5772 5769 5766 5764 5761 5758 5755 5752 5749 5747 5744 5741 5738 5735 5732 5728 5725 5721 5718 5714 5710 5707 5703 5699 5695 5691 5688 5684 5680 5676 5673 5669 5665 5661 5657 5653 5650 5646 5642
5772 5770 5768 5766 5763 5761 5758 5755 5753 5750 5747 5744 5742 5739 5736 5733 5730 5726 5723 5720 5716 5713 5709 5705 5702 5698 5694 5690 5687 5683 5679 5675 5671 5667 5664 5660 5656 5652 5648 5644 5640 5637 5633
5764 5762 5760 5758 5755 5753 5750 5747 5745 5742 5739 5737 5734 5731 5728 5725 5721 5718 5714 5711 5707 5704 5700 5697 5693 5689 5686 5682 5678 5674 5670 5667 5663 5659 5655 5651 5647 5643 5639 5635 5631 5627 5624
5756 5754 5752 5750 5747 5745 5742 5739 5736 5734 5731 5728 5726 5722 5719 5716 5713 5709 5706 5703 5699 5695 5692 5688 5685 5681 5677 5674 5670 5666 5662 5658 5654 5650 5646 5642 5638 5634 5630 5626 5622 5618 5614
5749 5747 5744 5742 5739 5736 5734 5731 5728 5726 5723 5720 5717 5714 5711 5708 5704 5701 5698 5694 5691 5687 5683 5680 5676 5673 5669 5665 5661 5658 5654 5649 5645 5641 5637 5633 5629 5625 5621 5617 5613 5609 5605
Wind_Speed
14 14 14 14 13 11 11 11 11 11 11 11 12 12 13 13 14 15 15 15 16 16 17 18 19 20 20 21 21 21 21 21 21 22 23 24 24 25 26 26 26 27 27
15 15 15 15 14 14 12 12 12 12 12 12 13 13 13 14 14 15 16 17 17 18 18 19 20 21 21 21 22 22 22 22 23 23 24 25 25 26 27 27 27 28 29
15 16 15 15 15 15 15 14 13 13 14 14 14 14 14 15 15 16 17 17 17 18 19 20 20 21 22 22 22 23 23 24 24 25 25 26 27 28 28 28 29 30 30
16 16 16 17 17 17 17 16 15 15 15 15 15 15 15 16 16 17 18 18 19 19 20 20 20 20 21 22 23 24 25 25 26 26 27 28 28 29 29 29 30 30 31
17 17 18 18 19 19 19 18 18 17 17 17 17 17 17 17 17 19 19 19 19 20 20 21 21 21 21 22 23 25 26 27 27 28 28 29 29 29 30 30 30 31 32
18 19 20 20 21 20 21 20 19 19 18 18 18 18 18 18 19 20 20 20 20 20 21 22 22 22 22 22 23 25 26 27 28 28 29 30 30 30 30 30 31 32 32
20 21 21 22 22 22 23 21 20 20 19 19 19 19 19 19 20 20 20 20 20 20 20 21 22 22 23 23 24 25 26 28 28 29 30 31 31 31 31 32 32 33 33
21 21 22 23 23 23 23 22 21 21 21 20 21 21 21 21 21 21 21 22 21 21 22 23 23 24 24 25 26 27 27 28 29 31 31 31 31 31 31 33 33 33 34
21 22 23 24 24 24 24 23 22 22 21 21 22 22 22 23 23 23 23 23 23 23 23 23 24 25 26 26 27 28 29 29 30 31 32 31 31 32 33 33 34 34 34
23 24 24 25 25 25 25 25 24 23 22 22 23 23 23 23 24 24 24 24 25 25 24 25 25 26 26 27 28 28 29 29 30 31 32 32 33 34 34 34 34 35 35
25 25 25 26 26 26 26 25 24 24 23 23 23 23 24 24 25 25 25 26 26 26 26 26 27 27 28 28 28 29 29 30 31 31 32 33 33 34 35 35 35 36 36
26 26 26 26 26 26 26 25 25 25 24 24 24 24 24 25 25 26 26 26 26 26 27 27 27 27 28 28 29 29 30 30 31 32 32 33 34 35 35 35 35 36 36
27 27 26 26 26 26 26 25 25 24 24 24 25 25 25 25 26 26 27 27 27 26 26 27 27 27 28 29 29 30 30 31 32 33 33 34 34 34 35 35 35 35 35
26 26 26 26 27 26 25 25 25 25 25 25 26 26 26 26 26 26 27 27 26 26 26 26 27 28 29 30 30 30 31 32 32 33 33 33 33 34 34 35 35 35 35
27 26 27 28 28 27 26 25 25 26 26 26 26 26 27 26 26 27 27 28 27 27 27 27 28 29 30 30 31 32 32 33 33 33 33 33 33 34 35 35 35 35 35
28 28 28 29 28 28 27 27 26 27 27 28 28 27 27 28 28 28 28 28 28 28 28 29 30 30 30 31 31 32 33 33 33 33 34 34 34 34 34 34 34 34 34
29 29 28 29 29 29 28 28 27 27 28 29 29 29 29 29 29 28 28 28 28 29 29 30 31 31 31 32 33 33 33 34 34 34 34 34 34 34 35 35 35 34 34
30 29 29 29 29 29 28 28 28 29 29 29 30 30 29 29 29 29 28 29 29 30 30 31 31 32 32 32 33 33 34 34 34 35 35 35 34 34 35 35 35 34 34
30 30 29 29 29 29 28 29 29 30 30 30 30 29 29 28 28 28 28 28 29 29 30 30 31 32 32 33 33 33 33 34 34 35 34 34 34 34 34 34 34 33 34
29 29 29 29 29 29 29 29 29 30 30 29 29 29 29 28 27 28 28 29 29 29 30 31 31 32 33 33 34 34 34 34 34 34 33 33 33 33 33 33 33 34 34
29 29 29 29 30 30 29 29 29 29 29 29 29 29 28 28 28 29 29 30 30 30 31 31 32 32 33 33 33 33 33 33 33 33 33 33 33 33 33 33 34 34 33
29 29 29 29 30 30 30 30 30 30 30 30 29 29 29 29 30 30 30 30 30 31 31 32 32 32 33 32 33 32 32 32 32 33 33 33 33 33 33 33 33 33 33
28 28 29 30 30 30 30 30 30 30 30 30 29 29 29 29 29 30 30 30 31 31 32 32 32 32 32 32 32 32 32 32 32 32 33 33 33 33 33 33 33 33 33
28 28 29 30 30 30 30 29 29 29 29 29 29 29 29 29 30 30 30 30 31 31 31 32 31 31 31 31 31 32 32 32 33 33 33 33 33 33 33 33 33 33 33
27 28 29 29 30 30 29 29 29 29 29 29 29 29 30 30 30 30 30 30 31 31 31 31 31 31 31 32 32 32 32 33 33 33 33 33 33 33 33 33 33 33 32
28 29 29 29 29 29 29 29 29 29 29 29 30 30 30 31 31 30 30 30 30 31 31 31 31 31 32 32 32 32 33 33 33 33 33 32 32 33 33 32 32 32 32
Wind_Direction
351 350 347 344 342 340 337 330 323 318 315 312 306 299 296 291 287 285 282 279 277 276 275 274 273 273 273 274 273 275 276 277 279 281 281 281 281 281 283 284 284 284 284
346 346 348 347 344 339 336 331 324 320 316 312 309 303 299 297 293 290 289 286 285 283 281 280 276 274 273 275 275 276 276 278 280 281 282 283 283 283 283 285 285 285 285
344 343 343 343 341 338 335 332 324 318 314 312 309 304 301 298 296 293 291 288 287 287 285 283 281 278 276 277 278 279 279 279 280 281 281 282 283 284 284 285 286 287 287
338 338 337 336 335 333 332 329 324 320 315 312 311 307 304 301 299 296 293 290 287 287 287 287 283 282 281 279 278 279 279 279 280 282 282 283 284 284 284 285 286 286 286
331 332 332 330 331 329 328 323 320 317 314 312 310 308 305 302 301 299 298 294 291 289 289 289 287 285 284 283 282 281 280 280 282 283 283 284 285 286 286 287 287 286 287
326 326 327 328 328 325 322 320 317 314 311 310 309 307 307 304 302 299 298 296 291 289 289 289 289 288 287 286 283 283 283 284 284 283 283 284 285 286 287 288 288 288 288
323 324 324 325 324 324 323 318 314 312 311 309 309 307 307 307 305 301 299 299 295 291 291 291 292 292 291 290 289 287 287 286 285 285 285 285 285 286 287 288 289 290 290
318 321 322 323 321 321 321 318 312 309 308 308 307 305 305 306 306 304 303 302 300 294 292 292 292 292 291 290 290 289 289 288 287 286 287 288 288 287 288 289 290 290 290
315 318 320 320 320 319 319 317 314 308 306 306 305 304 303 304 305 304 302 303 301 298 295 293 292 292 291 290 291 291 291 291 290 289 290 291 290 290 290 291 291 291 291
314 314 315 316 317 317 317 316 314 309 305 305 306 304 304 304 304 304 302 302 301 299 297 296 296 295 293 292 292 292 293 293 293 292 292 292 292 291 291 292 291 291 291
309 310 312 313 313 313 313 312 312 310 307 305 306 305 303 303 302 302 302 301 299 298 297 297 296 296 296 295 295 294 295 295 295 295 293 293 294 294 294 293 292 291 292
306 307 309 311 312 312 311 309 308 307 306 306 306 306 305 305 303 302 302 301 300 299 298 298 298 299 299 298 296 295 295 295 295 295 294 294 294 294 294 294 293 293 293
302 305 307 310 311 312 310 309 307 307 306 305 305 305 305 305 304 302 302 301 301 300 299 299 299 299 299 298 296 296 296 296 296 295 295 295 295 295 295 295 295 294 295
300 302 305 308 310 310 309 308 306 306 305 304 304 304 304 305 305 304 303 302 301 300 299 299 300 300 300 300 299 298 298 298 298 298 297 297 296 296 295 295 295 295 296
298 300 303 306 308 308 307 307 306 304 304 304 303 303 303 304 304 304 303 301 300 300 300 300 301 300 300 300 300 299 299 299 299 299 298 298 298 298 298 297 296 296 297
299 300 301 303 304 305 304 304 304 304 303 303 302 302 302 302 301 301 301 300 299 299 299 300 300 300 300 300 300 300 301 301 301 299 298 298 298 299 299 299 298 298 298
299 300 300 301 301 302 302 302 302 302 303 303 303 302 301 301 301 301 300 300 300 299 300 301 301 301 301 301 301 300 301 301 302 301 300 300 300 299 299 299 299 299 299
298 299 299 300 301 300 300 300 301 302 302 303 303 303 302 301 301 301 302 302 301 301 301 301 301 301 301 301 301 302 302 301 301 300 300 300 300 299 299 300 300 300 300
294 297 298 300 301 301 300 300 301 302 302 304 304 303 303 303 303 303 303 303 302 302 302 302 303 303 302 302 302 302 302 302 302 302 301 301 301 300 300 300 300 300 300
293 295 297 299 300 300 300 300 301 302 302 303 303 302 303 302 303 304 304 303 303 304 305 305 304 304 304 304 304 303 303 303 303 304 303 304 303 302 301 301 301 301 300
293 295 297 298 299 299 300 300 301 301 301 302 302 302 302 302 303 303 304 304 304 304 305 305 306 305 305 304 305 304 304 304 305 306 306 305 305 304 303 302 302 302 301
292 294 295 297 298 299 299 299 299 300 300 300 301 301 302 303 303 303 303 304 304 305 305 306 306 306 306 307 307 306 306 306 307 308 308 306 305 304 304 304 304 303 302
291 292 294 295 297 298 298 298 298 299 299 300 300 300 302 302 303 304 304 304 304 305 305 306 306 307 307 308 308 309 308 307 308 309 309 308 307 307 306 306 304 303 303
290 292 294 296 297 297 298 298 298 297 297 299 301 301 302 303 304 304 305 305 306 305 306 307 307 307 308 308 308 309 309 309 310 310 309 308 308 308 308 308 307 305 304
290 293 295 296 296 297 297 296 296 296 297 299 301 302 302 303 304 304 304 306 307 307 307 307 306 306 307 308 309 310 310 310 310 310 309 308 308 308 308 308 307 306 305
291 293 294 296 296 296 296 296 296 297 298 300 300 300 301 302 304 304 305 306 307 307 307 307 307 307 308 310 311 311 310 311 311 310 309 308 308 309 310 310 309 307 306